When you browse on this site, cookies collect data to enhance your experience and personalize the content and advertising you see.
Visit our Privacy Policy to learn more. By continuing to use the site, you agree to this use of cookies and data.
  • en Suisse
  • Liste des pays
  • À 7 jours
  • Température de l'eau
  • Carte météo
  • Widgets météo
  • user-avatar
    Se connecter

    Météo par heure à Tomashivtsi

    Ce jour, 23 Août, Vendredi

    Heure Température Précipitation Vent Pression Humidité
    00:00 +17°C° 0 mm 2 m/s 745 mmHg 90%
    01:00 +16°C° 0 mm 2 m/s 745 mmHg 92%
    02:00 +16°C° 0 mm 1 m/s 745 mmHg 94%
    03:00 +16°C° 0.1 mm 1 m/s 745 mmHg 95%
    04:00 +16°C° 0.1 mm 2 m/s 745 mmHg 95%
    05:00 +16°C° 0.1 mm 2 m/s 745 mmHg 96%
    06:00 +17°C° 0 mm 2 m/s 745 mmHg 93%
    07:00 +18°C° 0 mm 2 m/s 745 mmHg 89%
    08:00 +19°C° 0 mm 3 m/s 746 mmHg 85%
    09:00 +20°C° 0 mm 3 m/s 746 mmHg 79%
    10:00 +21°C° 0 mm 2 m/s 746 mmHg 73%
    11:00 +24°C° 0 mm 2 m/s 746 mmHg 67%
    12:00 +24°C° 0 mm 2 m/s 745 mmHg 66%
    13:00 +25°C° 0 mm 2 m/s 745 mmHg 64%
    14:00 +25°C° 0 mm 2 m/s 745 mmHg 62%
    15:00 +25°C° 0 mm 2 m/s 745 mmHg 63%
    16:00 +25°C° 0 mm 2 m/s 745 mmHg 63%
    17:00 +25°C° 0 mm 2 m/s 745 mmHg 64%
    18:00 +24°C° 0 mm 2 m/s 745 mmHg 68%
    19:00 +23°C° 0 mm 2 m/s 745 mmHg 72%
    20:00 +21°C° 0 mm 3 m/s 745 mmHg 76%
    21:00 +20°C° 0 mm 2 m/s 745 mmHg 76%
    22:00 +19°C° 0 mm 2 m/s 745 mmHg 77%
    23:00 +18°C° 0 mm 2 m/s 745 mmHg 78%

    Demain, 24 Août, Samedi

    Heure Température Précipitation Vent Pression Humidité
    00:00 +18°C° 0 mm 2 m/s 745 mmHg 80%
    01:00 +17°C° 0 mm 2 m/s 745 mmHg 83%
    02:00 +16°C° 0 mm 2 m/s 745 mmHg 85%
    03:00 +16°C° 0 mm 2 m/s 745 mmHg 86%
    04:00 +16°C° 0 mm 2 m/s 744 mmHg 88%
    05:00 +15°C° 0 mm 2 m/s 744 mmHg 89%
    06:00 +16°C° 0 mm 2 m/s 744 mmHg 85%
    07:00 +18°C° 0 mm 3 m/s 744 mmHg 82%
    08:00 +19°C° 0 mm 3 m/s 744 mmHg 78%
    09:00 +21°C° 0 mm 3 m/s 744 mmHg 73%
    10:00 +22°C° 0 mm 3 m/s 744 mmHg 67%
    11:00 +25°C° 0 mm 4 m/s 744 mmHg 61%
    12:00 +26°C° 0 mm 4 m/s 744 mmHg 59%
    13:00 +27°C° 0 mm 4 m/s 744 mmHg 57%
    14:00 +28°C° 0 mm 4 m/s 743 mmHg 55%
    15:00 +28°C° 0 mm 4 m/s 743 mmHg 56%
    16:00 +27°C° 0 mm 4 m/s 743 mmHg 58%
    17:00 +27°C° 0 mm 4 m/s 743 mmHg 59%
    18:00 +25°C° 0 mm 4 m/s 743 mmHg 63%
    19:00 +23°C° 0 mm 4 m/s 743 mmHg 66%
    20:00 +21°C° 0 mm 3 m/s 743 mmHg 70%
    21:00 +20°C° 0 mm 3 m/s 743 mmHg 71%
    22:00 +19°C° 0 mm 3 m/s 743 mmHg 71%
    23:00 +18°C° 0 mm 2 m/s 743 mmHg 71%

    Après-demain, 25 Août, Dimanche

    Heure Température Précipitation Vent Pression Humidité
    00:00 +18°C° 0 mm 2 m/s 743 mmHg 74%
    01:00 +17°C° 0 mm 2 m/s 743 mmHg 76%
    02:00 +16°C° 0 mm 2 m/s 743 mmHg 78%
    03:00 +16°C° 0 mm 2 m/s 743 mmHg 79%
    04:00 +16°C° 0 mm 2 m/s 743 mmHg 80%
    05:00 +16°C° 0 mm 2 m/s 742 mmHg 82%
    06:00 +17°C° 0 mm 3 m/s 742 mmHg 78%
    07:00 +18°C° 0 mm 3 m/s 743 mmHg 74%
    08:00 +19°C° 0 mm 4 m/s 743 mmHg 70%
    09:00 +21°C° 0 mm 4 m/s 743 mmHg 65%
    10:00 +22°C° 0 mm 4 m/s 743 mmHg 61%
    11:00 +25°C° 0 mm 4 m/s 743 mmHg 56%
    12:00 +26°C° 0 mm 4 m/s 743 mmHg 54%
    13:00 +27°C° 0 mm 4 m/s 743 mmHg 52%
    14:00 +28°C° 0 mm 4 m/s 742 mmHg 50%
    15:00 +27°C° 0 mm 4 m/s 742 mmHg 51%
    16:00 +27°C° 0 mm 4 m/s 742 mmHg 53%
    17:00 +27°C° 0 mm 4 m/s 742 mmHg 55%
    18:00 +25°C° 0 mm 4 m/s 742 mmHg 58%
    19:00 +22°C° 0 mm 4 m/s 742 mmHg 61%
    20:00 +20°C° 0 mm 4 m/s 742 mmHg 63%
    21:00 +19°C° 0 mm 3 m/s 742 mmHg 64%
    22:00 +19°C° 0 mm 3 m/s 742 mmHg 65%
    23:00 +18°C° 0 mm 3 m/s 742 mmHg 66%

    26 Août, Lundi

    Heure Température Précipitation Vent Pression Humidité
    00:00 +17°C° 0 mm 3 m/s 742 mmHg 67%
    01:00 +17°C° 0 mm 3 m/s 742 mmHg 68%
    02:00 +16°C° 0 mm 3 m/s 742 mmHg 69%
    03:00 +16°C° 0 mm 3 m/s 742 mmHg 70%
    04:00 +16°C° 0 mm 3 m/s 742 mmHg 71%
    05:00 +14°C° 0 mm 3 m/s 742 mmHg 72%
    06:00 +17°C° 0 mm 3 m/s 742 mmHg 69%
    07:00 +18°C° 0 mm 3 m/s 742 mmHg 67%
    08:00 +19°C° 0 mm 4 m/s 742 mmHg 64%
    09:00 +21°C° 0 mm 4 m/s 742 mmHg 59%
    10:00 +23°C° 0 mm 4 m/s 742 mmHg 54%
    11:00 +27°C° 0 mm 4 m/s 742 mmHg 49%
    12:00 +28°C° 0 mm 4 m/s 742 mmHg 47%
    13:00 +29°C° 0 mm 4 m/s 742 mmHg 45%
    14:00 +30°C° 0 mm 4 m/s 742 mmHg 42%
    15:00 +30°C° 0 mm 4 m/s 742 mmHg 44%
    16:00 +29°C° 0 mm 4 m/s 741 mmHg 46%
    17:00 +29°C° 0 mm 4 m/s 741 mmHg 48%
    18:00 +27°C° 0 mm 4 m/s 741 mmHg 52%
    19:00 +25°C° 0 mm 4 m/s 741 mmHg 56%
    20:00 +21°C° 0 mm 3 m/s 741 mmHg 60%
    21:00 +21°C° 0 mm 3 m/s 741 mmHg 61%
    22:00 +20°C° 0 mm 3 m/s 741 mmHg 63%
    23:00 +19°C° 0 mm 2 m/s 741 mmHg 64%

    27 Août, Mardi

    Heure Température Précipitation Vent Pression Humidité
    00:00 +18°C° 0 mm 2 m/s 741 mmHg 65%
    01:00 +18°C° 0 mm 2 m/s 741 mmHg 67%
    02:00 +17°C° 0 mm 2 m/s 741 mmHg 69%
    03:00 +17°C° 0 mm 2 m/s 741 mmHg 71%
    04:00 +16°C° 0 mm 2 m/s 741 mmHg 73%
    05:00 +16°C° 0 mm 2 m/s 741 mmHg 75%
    06:00 +17°C° 0 mm 2 m/s 741 mmHg 71%
    07:00 +19°C° 0 mm 2 m/s 741 mmHg 68%
    08:00 +20°C° 0 mm 2 m/s 742 mmHg 64%
    09:00 +24°C° 0 mm 2 m/s 742 mmHg 58%
    10:00 +26°C° 0 mm 3 m/s 742 mmHg 52%
    11:00 +28°C° 0 mm 3 m/s 742 mmHg 45%
    12:00 +29°C° 0 mm 3 m/s 742 mmHg 41%
    13:00 +30°C° 0 mm 3 m/s 742 mmHg 37%
    14:00 +31°C° 0 mm 3 m/s 742 mmHg 34%
    15:00 +31°C° 0 mm 3 m/s 741 mmHg 37%
    16:00 +32°C° 0 mm 4 m/s 741 mmHg 40%
    17:00 +30°C° 0 mm 4 m/s 741 mmHg 43%
    18:00 +28°C° 0 mm 3 m/s 741 mmHg 48%
    19:00 +25°C° 0 mm 3 m/s 741 mmHg 54%
    20:00 +22°C° 0 mm 3 m/s 741 mmHg 60%
    21:00 +21°C° 0 mm 3 m/s 742 mmHg 62%
    22:00 +20°C° 0 mm 3 m/s 742 mmHg 64%
    23:00 +19°C° 0 mm 2 m/s 742 mmHg 66%

    28 Août, Mercredi

    Heure Température Précipitation Vent Pression Humidité
    00:00 +19°C° 0 mm 3 m/s 742 mmHg 68%
    01:00 +18°C° 0 mm 3 m/s 742 mmHg 69%
    02:00 +18°C° 0 mm 3 m/s 742 mmHg 70%
    03:00 +17°C° 0 mm 3 m/s 742 mmHg 71%
    04:00 +17°C° 0 mm 3 m/s 742 mmHg 71%
    05:00 +17°C° 0 mm 3 m/s 742 mmHg 72%
    06:00 +18°C° 0 mm 3 m/s 742 mmHg 68%
    07:00 +19°C° 0 mm 3 m/s 742 mmHg 65%
    08:00 +21°C° 0 mm 4 m/s 742 mmHg 61%
    09:00 +23°C° 0 mm 4 m/s 742 mmHg 56%
    10:00 +26°C° 0 mm 4 m/s 742 mmHg 50%
    11:00 +28°C° 0 mm 4 m/s 742 mmHg 45%
    12:00 +29°C° 0 mm 4 m/s 742 mmHg 42%
    13:00 +30°C° 0 mm 4 m/s 742 mmHg 38%
    14:00 +33°C° 0 mm 4 m/s 741 mmHg 35%
    15:00 +32°C° 0 mm 4 m/s 741 mmHg 37%
    16:00 +32°C° 0 mm 4 m/s 741 mmHg 40%
    17:00 +30°C° 0 mm 4 m/s 741 mmHg 42%
    18:00 +28°C° 0 mm 3 m/s 741 mmHg 47%
    19:00 +25°C° 0 mm 3 m/s 741 mmHg 51%
    20:00 +22°C° 0 mm 3 m/s 741 mmHg 56%
    21:00 +21°C° 0 mm 3 m/s 741 mmHg 57%
    22:00 +20°C° 0 mm 3 m/s 741 mmHg 58%
    23:00 +19°C° 0 mm 3 m/s 741 mmHg 59%
    Voir plus